Location: Freiburg+im+Breisgau
(48.0359°N, 7.8195°E)
Time: 17:26:37
(UTC+02:00)

ISS - Visible Passes

Search period start: 18 May 2021 00:00
Search period end: 28 May 2021 00:00
Orbit: 417 x 422 km, 51.6° (Epoch: 18 May)

Date Brightness Start Highest point End Pass type
(mag) Time Alt. Az. Time Alt. Az. Time Alt. Az.
18 May -2.8 01:18:45 10° WNW 01:22:03 48° N 01:22:53 38° NE visible
18 May -1.1 02:55:36 10° WNW 02:55:46 11° WNW 02:55:46 11° WNW visible
18 May -3.1 22:54:01 10° W 22:57:21 59° NNW 23:00:41 10° ENE visible
19 May -2.6 00:31:14 10° WNW 00:34:30 44° N 00:36:27 20° ENE visible
19 May -1.8 02:08:07 10° WNW 02:09:22 21° WNW 02:09:22 21° WNW visible
19 May -3.5 22:06:28 10° WSW 22:09:51 75° NNW 22:13:13 10° ENE visible
19 May -2.5 23:43:41 10° WNW 23:46:56 43° N 23:50:11 10° ENE visible
20 May -2.9 01:20:39 10° WNW 01:23:11 47° NW 01:23:11 47° NW visible
20 May -2.6 22:56:06 10° W 22:59:22 44° N 23:02:38 10° ENE visible
21 May -3.2 00:33:10 10° WNW 00:36:31 58° NNE 00:37:06 48° ENE visible
21 May -2.8 22:08:31 10° W 22:11:49 49° N 22:15:07 10° ENE visible
21 May -2.9 23:45:41 10° WNW 23:48:59 49° N 23:51:03 20° ENE visible
22 May -1.9 01:22:33 10° WNW 01:23:59 23° WNW 01:23:59 23° WNW visible
22 May -2.6 22:58:10 10° WNW 23:01:25 44° N 23:04:41 10° E visible
23 May -3.5 00:35:03 10° WNW 00:37:58 64° W 00:37:58 64° W visible
23 May -2.5 22:10:36 10° WNW 22:13:50 43° N 22:17:05 10° ENE visible
23 May -3.6 23:47:34 10° WNW 23:50:56 74° NNE 23:51:59 41° E visible
24 May -1.0 01:24:40 10° W 01:24:55 11° W 01:24:55 11° W visible
24 May -3.2 23:00:05 10° WNW 23:03:25 58° NNE 23:06:00 16° E visible
25 May -2.3 00:37:00 10° WNW 00:38:57 27° W 00:38:57 27° W visible
25 May -2.9 22:12:35 10° WNW 22:15:52 49° N 22:19:09 10° E visible
25 May -3.7 23:49:26 10° WNW 23:52:45 57° SSW 23:53:00 55° S visible
26 May -3.8 23:01:55 10° WNW 23:05:18 83° SSW 23:07:06 25° ESE visible
27 May -1.2 00:39:25 10° W 00:40:02 13° WSW 00:40:02 13° WSW visible
27 May -3.6 22:14:25 10° WNW 22:17:48 74° NNE 22:21:09 10° ESE visible
27 May -2.4 23:51:31 10° W 23:54:09 25° SW 23:54:09 25° SW visible
